Salt Flat, TX

4:06 AM MST on February 10, 2016 (GMT -0700)
Guadalupe Pass

Weather History for KGDP - March, 2013

Change the Weather History Date:

Sunday, March 24, 2013

  Actual Average Record
Temperature  
Mean Temperature 35 °F -  
Max Temperature 55 °F 62 °F 82 °F (2012)
Min Temperature 19 °F 40 °F 19 °F (2013)
Degree Days  
Heating Degree Days 30    
Moisture  
Dew Point 4 °F    
Average Humidity 32    
Maximum Humidity 57    
Minimum Humidity 12    
Precipitation  
Precipitation 0.00 in - - ()
Sea Level Pressure  
Sea Level Pressure 30.03 in    
Wind  
Wind Speed 31 mph (ENE)    
Max Wind Speed 43 mph    
Max Gust Speed 20 mph    
Visibility 8 miles    
Events      
Averages and records for this station are not official NWS values.
T = Trace of Precipitation, MM = Missing Value Source: NWS Daily Summary

Daily Weather History Graph

Daily Weather History Graph

Search for Another Location

Airport or City:

Trip Planner

Search our weather history database for the weather conditions in past years. The results will help you decide how hot, cold, wet, or windy it might be!

Date:

Astronomy

Mar. 24, 2013 Rise Set
Actual Time 6:57 AM MDT 7:13 PM MDT
Civil Twilight 6:33 AM MDT 7:38 PM MDT
Nautical Twilight 6:04 AM MDT 8:06 PM MDT
Astronomical Twilight 5:35 AM MDT 8:35 PM MDT
Moon 4:51 PM MDT (3/24) 5:00 AM MDT (3/24)
Length of Visible Light 13h 04m
Length of Day
12h 16m
Waxing Gibbous, 92% of the Moon is Illuminated
Mar 24
Waxing Gibbous
Mar 27
Full
Apr 2
Last Quarter
Apr 10
New
Apr 18
First Quarter

Hourly Weather History & Observations

Time (MDT) Temp. Windchill Dew Point Humidity Pressure Visibility Wind Dir Wind Speed Gust Speed Precip Events Conditions
12:39 AM 33.1 °F 17.5 °F -0.0 °F 24% 30.01 in 5.0 mi East 39.1 mph - N/A   Haze
12:51 AM 32.0 °F 16.0 °F 3.0 °F 29% 29.91 in 5.0 mi ENE 39.1 mph - N/A   Haze
1:24 AM 28.9 °F 11.1 °F 5.0 °F 36% 30.02 in 6.0 mi ENE 42.6 mph - N/A   Haze
1:51 AM 27.0 °F 8.6 °F 6.1 °F 41% 29.96 in 6.0 mi ENE 41.4 mph - N/A   Haze
2:51 AM 25.0 °F 6.0 °F 7.0 °F 46% 29.97 in 7.0 mi ENE 40.3 mph - N/A   Clear
3:51 AM 23.0 °F 4.1 °F 6.1 °F 48% 29.99 in 8.0 mi ENE 35.7 mph - N/A   Clear
4:51 AM 21.0 °F 2.4 °F 6.1 °F 53% 30.02 in 8.0 mi ENE 31.1 mph - N/A   Clear
5:51 AM 19.9 °F 1.0 °F 6.1 °F 55% 30.06 in 8.0 mi ENE 31.1 mph - N/A   Clear
6:51 AM 19.0 °F -0.3 °F 6.1 °F 57% 30.09 in 8.0 mi NE 31.1 mph - N/A   Clear
7:51 AM 21.9 °F 3.9 °F 6.1 °F 51% 30.10 in 7.0 mi ENE 29.9 mph - N/A   Clear
8:51 AM 26.1 °F 9.8 °F 3.9 °F 39% 30.11 in 8.0 mi ENE 28.8 mph - N/A   Clear
9:51 AM 30.0 °F 16.0 °F 3.0 °F 32% 30.10 in 8.0 mi ENE 25.3 mph - N/A   Clear
10:51 AM 32.0 °F 18.9 °F 3.9 °F 31% 30.14 in 8.0 mi East 24.2 mph - N/A   Clear
11:51 AM 36.0 °F 24.7 °F 3.9 °F 26% 30.12 in 8.0 mi ENE 21.9 mph - N/A   Clear
12:51 PM 39.0 °F 31.0 °F 3.9 °F 23% 30.11 in 8.0 mi East 13.8 mph - N/A   Clear
1:51 PM 42.1 °F 35.7 °F 3.0 °F 20% 30.08 in 8.0 mi East 11.5 mph 19.6 mph N/A   Clear
2:51 PM 44.1 °F 40.1 °F 1.9 °F 17% 30.04 in 8.0 mi ESE 6.9 mph - N/A   Clear
3:51 PM 48.9 °F - 3.0 °F 15% 30.01 in 8.0 mi Variable 5.8 mph - N/A   Clear
4:51 PM 51.1 °F - -0.0 °F 12% 29.98 in 7.0 mi WSW 8.1 mph - N/A   Clear
5:51 PM 48.9 °F - 3.9 °F 16% 29.98 in 7.0 mi East 6.9 mph - N/A   Clear
6:51 PM 44.1 °F 35.9 °F 3.9 °F 19% 29.99 in 7.0 mi ENE 19.6 mph - N/A   Clear
7:51 PM 39.9 °F 28.8 °F 5.0 °F 23% 30.00 in 9.0 mi ENE 27.6 mph - N/A   Clear
8:51 PM 37.0 °F 24.5 °F 5.0 °F 26% 30.00 in 9.0 mi ENE 29.9 mph - N/A   Clear
9:51 PM 36.0 °F 23.2 °F 5.0 °F 27% 30.03 in 9.0 mi ENE 28.8 mph - N/A   Clear
10:51 PM 35.1 °F 21.0 °F 6.1 °F 30% 30.01 in 9.0 mi ENE 34.5 mph - N/A   Clear
11:51 PM 34.0 °F 19.5 °F 6.1 °F 31% 30.01 in 9.0 mi ENE 34.5 mph - N/A   Clear